Tracking 18794 objects as of 23-September-2017
HD Live streaming from Space Station
objects crossing your sky now

LINK

Track LINK now!
10-day predictions
LINK is classified as:


NORAD ID: 42714
Int'l Code: 1998-067LV
Perigee: 396.7 km
Apogee: 398.4 km
Inclination: 51.6 °
Period: 92.4 minutes
Semi major axis: 6768 km
RCS: Unknown
Launch date: November 20, 1998
Source: South Korea (SKOR)
Launch site: TYURATAM MISSILE AND SPACE COMPLEX (TTMTR)
Uplink (MHz):
Downlink (MHz): 436.030
Beacon (MHz):
Mode: 1200bps BPSK
Call sign: D80LW
Status: Active

aabbcc
Your satellite tracking list
Your tracking list is empty





NASA's NSSDC Master Catalog

Two Line Element Set (TLE):
1 42714U 98067LV  17266.48255995  .00022763  00000-0  29179-3 0  9998
2 42714  51.6376 266.0871 0001256 331.0850  29.0073 15.59061081 19931
Source of the keplerian elements: AFSPC